Weather History for Alpine, TX

Change the Weather History Date:

Saturday, February 16, 2013

  Actual Average (KMRF) Record (KMRF)
Temperature  
Mean Temperature 40 °F -  
Max Temperature 60 °F 59 °F 84 °F (2014)
Min Temperature 21 °F 29 °F 12 °F (1998)
Degree Days  
Heating Degree Days 24    
Moisture  
Dew Point 17 °F    
Average Humidity 47    
Maximum Humidity 91    
Minimum Humidity 17    
Precipitation  
Precipitation 0.00 in - - ()
Sea Level Pressure  
Sea Level Pressure 30.37 in    
Wind  
Wind Speed 9 mph (South)    
Max Wind Speed 17 mph    
Max Gust Speed 17 mph    
Visibility 10 miles    
Events      
Averages and records for this station are not official NWS values.
T = Trace of Precipitation, MM = Missing Value Source: NWS Daily Summary

Daily Weather History Graph

Daily Weather History Graph

Search for Another Location

Airport:

Trip Planner

Search our weather history database for the weather conditions in past years. The results will help you decide how hot, cold, wet, or windy it might be!

Date:

Astronomy

Feb. 16, 2013 Rise Set
Actual Time 7:33 AM CST 6:44 PM CST
Civil Twilight 7:09 AM CST 7:08 PM CST
Nautical Twilight 6:41 AM CST 7:36 PM CST
Astronomical Twilight 6:13 AM CST 8:04 PM CST
Moon 11:19 AM CST (2/16) 12:16 AM CST (2/16)
Length of Visible Light 11h 59m
Length of Day
11h 10m
Waxing Crescent, 39% of the Moon is Illuminated
Feb 16
Waxing Crescent
Feb 17
First Quarter
Feb 25
Full
Mar 4
Last Quarter
Mar 11
New

Hourly Weather History & Observations

Time (CST) Temp. Windchill Dew Point Humidity Pressure Visibility Wind Dir Wind Speed Gust Speed Precip Events Conditions
12:15 AM 23.2 °F 17.2 °F 20.3 °F 89% 30.44 in 10.0 mi South 4.6 mph - N/A   Clear
12:35 AM 21.7 °F 12.3 °F 19.4 °F 91% 30.44 in 10.0 mi SSW 8.1 mph - N/A   Clear
12:55 AM 23.9 °F 18.0 °F 21.4 °F 90% 30.44 in 10.0 mi South 4.6 mph - N/A   Clear
1:15 AM 22.8 °F 14.5 °F 20.3 °F 90% 30.44 in 10.0 mi SSW 6.9 mph - N/A   Clear
1:35 AM 23.4 °F 13.5 °F 21.0 °F 91% 30.44 in 10.0 mi SW 9.2 mph - N/A   Clear
1:55 AM 24.8 °F 16.9 °F 21.9 °F 89% 30.43 in 10.0 mi SSW 6.9 mph - N/A   Clear
2:15 AM 23.5 °F 15.4 °F 20.8 °F 89% 30.44 in 10.0 mi SSW 6.9 mph - N/A   Clear
2:35 AM 22.8 °F 14.5 °F 20.5 °F 91% 30.44 in 10.0 mi SSW 6.9 mph - N/A   Clear
2:55 AM 25.2 °F 17.3 °F 22.1 °F 88% 30.44 in 10.0 mi South 6.9 mph - N/A   Clear
3:15 AM 25.7 °F 18.0 °F 22.5 °F 88% 30.44 in 10.0 mi South 6.9 mph - N/A   Clear
3:35 AM 25.7 °F 18.0 °F 22.1 °F 86% 30.43 in 10.0 mi South 6.9 mph - N/A   Clear
3:55 AM 26.1 °F 17.6 °F 22.1 °F 85% 30.43 in 10.0 mi SSW 8.1 mph - N/A   Clear
4:15 AM 27.5 °F 20.2 °F 21.4 °F 78% 30.43 in 10.0 mi South 6.9 mph - N/A   Clear
4:35 AM 28.2 °F 20.2 °F 21.7 °F 77% 30.43 in 10.0 mi South 8.1 mph - N/A   Clear
5:15 AM 30.7 °F 22.0 °F 22.3 °F 71% 30.43 in 10.0 mi SSW 10.4 mph - N/A   Clear
5:35 AM 31.6 °F 23.1 °F 22.8 °F 70% 30.43 in 10.0 mi South 10.4 mph - N/A   Clear
5:55 AM 31.3 °F 22.1 °F 22.8 °F 71% 30.43 in 10.0 mi South 11.5 mph - N/A   Clear
6:15 AM 29.5 °F 21.1 °F 22.1 °F 74% 30.43 in 10.0 mi SSW 9.2 mph - N/A   Clear
6:35 AM 29.5 °F 23.4 °F 21.6 °F 72% 30.43 in 10.0 mi SSW 5.8 mph - N/A   Clear
6:55 AM 28.8 °F 21.7 °F 21.2 °F 73% 30.44 in 10.0 mi SSW 6.9 mph - N/A   Clear
7:15 AM 27.0 °F 20.5 °F 20.1 °F 75% 30.44 in 10.0 mi South 5.8 mph - N/A   Clear
7:35 AM 26.4 °F 18.0 °F 20.3 °F 78% 30.44 in 10.0 mi South 8.1 mph - N/A   Clear
7:55 AM 27.5 °F 18.6 °F 20.8 °F 76% 30.46 in 10.0 mi SSW 9.2 mph - N/A   Clear
8:15 AM 31.3 °F 24.7 °F 21.7 °F 68% 30.46 in 10.0 mi SSW 6.9 mph - N/A   Clear
8:35 AM 35.1 °F 31.0 °F 22.6 °F 61% 30.47 in 10.0 mi SSW 4.6 mph - N/A   Clear
8:55 AM 38.7 °F 32.9 °F 24.3 °F 56% 30.47 in 10.0 mi South 8.1 mph - N/A   Clear
9:15 AM 42.4 °F 36.5 °F 24.1 °F 48% 30.47 in 10.0 mi SSW 10.4 mph - N/A   Clear
9:35 AM 44.8 °F 38.3 °F 21.7 °F 40% 30.47 in 10.0 mi SW 13.8 mph - N/A   Clear
12:15 PM 54.1 °F - 17.4 °F 24% 30.44 in 10.0 mi South 9.2 mph - N/A   Clear
12:35 PM 54.0 °F - 15.4 °F 22% 30.43 in 10.0 mi SSW 5.8 mph - N/A   Clear
12:55 PM 54.3 °F - 13.5 °F 20% 30.42 in 10.0 mi South 3.5 mph - N/A   Clear
1:15 PM 55.2 °F - 12.6 °F 18% 30.40 in 10.0 mi South 6.9 mph - N/A   Clear
1:35 PM 56.3 °F - 13.1 °F 18% 30.39 in 10.0 mi SSE 5.8 mph - N/A   Clear
1:55 PM 57.0 °F - 13.6 °F 18% 30.37 in 10.0 mi Calm Calm - N/A   Clear
2:15 PM 57.9 °F - 13.3 °F 17% 30.35 in 10.0 mi South 12.7 mph - N/A   Clear
2:35 PM 59.2 °F - 13.5 °F 17% 30.34 in 10.0 mi South 12.7 mph 17.3 mph N/A   Clear
2:55 PM 59.2 °F - 13.5 °F 17% 30.33 in 10.0 mi South 12.7 mph - N/A   Clear
3:15 PM 59.7 °F - 15.1 °F 17% 30.32 in 10.0 mi South 10.4 mph - N/A   Clear
3:55 PM 60.3 °F - 16.0 °F 18% 30.31 in 10.0 mi South 11.5 mph 17.3 mph N/A   Clear
4:15 PM 60.4 °F - 15.8 °F 18% 30.30 in 10.0 mi South 10.4 mph - N/A   Clear
4:35 PM 60.1 °F - 15.1 °F 17% 30.30 in 10.0 mi SSW 12.7 mph 17.3 mph N/A   Clear
4:55 PM 60.1 °F - 14.9 °F 17% 30.29 in 10.0 mi SSW 15.0 mph - N/A   Clear
5:15 PM 59.9 °F - 14.5 °F 17% 30.28 in 10.0 mi SSW 11.5 mph - N/A   Clear
5:55 PM 58.8 °F - 14.0 °F 17% 30.27 in 10.0 mi South 11.5 mph - N/A   Clear
6:15 PM 57.2 °F - 13.8 °F 18% 30.27 in 10.0 mi South 11.5 mph - N/A   Clear
6:35 PM 54.7 °F - 13.3 °F 19% 30.27 in 10.0 mi South 10.4 mph - N/A   Clear
6:55 PM 51.1 °F - 12.7 °F 22% 30.27 in 10.0 mi South 13.8 mph - N/A   Clear
7:15 PM 50.7 °F - 12.2 °F 21% 30.27 in 10.0 mi South 15.0 mph - N/A   Clear
7:35 PM 49.8 °F - 10.8 °F 21% 30.27 in 10.0 mi South 12.7 mph - N/A   Clear
7:55 PM 48.4 °F - 10.4 °F 22% 30.27 in 10.0 mi South 12.7 mph - N/A   Clear
8:15 PM 46.0 °F 40.6 °F 10.4 °F 24% 30.28 in 10.0 mi South 11.5 mph - N/A   Clear
8:55 PM 47.1 °F - 12.4 °F 25% 30.27 in 10.0 mi South 13.8 mph - N/A   Clear
9:15 PM 46.2 °F 40.1 °F 13.3 °F 27% 30.27 in 10.0 mi South 13.8 mph - N/A   Clear
9:35 PM 45.5 °F 38.3 °F 13.6 °F 28% 30.27 in 10.0 mi South 17.3 mph - N/A   Clear
9:55 PM 45.3 °F 38.1 °F 13.8 °F 28% 30.27 in 10.0 mi South 17.3 mph - N/A   Clear
10:15 PM 44.4 °F 37.5 °F 14.0 °F 29% 30.27 in 10.0 mi South 15.0 mph - N/A   Clear
10:35 PM 43.7 °F 36.3 °F 14.4 °F 31% 30.27 in 10.0 mi South 16.1 mph - N/A   Clear
10:55 PM 44.6 °F 37.4 °F 14.5 °F 30% 30.26 in 10.0 mi South 16.1 mph - N/A   Clear
11:15 PM 44.8 °F 37.7 °F 14.4 °F 29% 30.25 in 10.0 mi South 16.1 mph - N/A   Clear
11:35 PM 44.6 °F 38.1 °F 14.2 °F 29% 30.24 in 10.0 mi South 13.8 mph - N/A   Clear
11:55 PM 44.6 °F 37.8 °F 14.0 °F 29% 30.24 in 10.0 mi South 15.0 mph - N/A   Clear